Weather History for Adrian, MI

Change the Weather History Date:

Monday, June 17, 2013

  Actual Average Record
Temperature  
Mean Temperature 72 °F -  
Max Temperature 84 °F 80 °F 98 °F (1957)
Min Temperature 61 °F 55 °F 43 °F (1980)
Cooling Degree Days 8    
Growing Degree Days 22 (Base 50)    
Moisture  
Dew Point 60 °F    
Average Humidity 66    
Maximum Humidity 90    
Minimum Humidity 38    
Precipitation  
Precipitation 0.01 in - - ()
Sea Level Pressure  
Sea Level Pressure 29.91 in    
Wind  
Wind Speed 3 mph (West)    
Max Wind Speed 12 mph    
Max Gust Speed 22 mph    
Visibility 9 miles    
Events Rain    
Averages and records for this station are not official NWS values.
T = Trace of Precipitation, MM = Missing Value Source: NWS Daily Summary

Daily Weather History Graph

Daily Weather History Graph

Search for Another Location

Airport:

Trip Planner

Search our weather history database for the weather conditions in past years. The results will help you decide how hot, cold, wet, or windy it might be!

Date:

Astronomy

Jun. 17, 2013 Rise Set
Actual Time 6:00 AM EDT 9:13 PM EDT
Civil Twilight 5:26 AM EDT 9:48 PM EDT
Nautical Twilight 4:42 AM EDT 10:32 PM EDT
Astronomical Twilight 3:48 AM EDT 11:25 PM EDT
Moon 2:47 PM EDT (6/17) 1:41 AM EDT (6/17)
Length of Visible Light 16h 21m
Length of Day
15h 13m
First Quarter, 60% of the Moon is Illuminated
Jun 17
First Quarter
Jun 23
Full
Jun 30
Last Quarter
Jul 8
New
Jul 15
First Quarter

Hourly Weather History & Observations

Time (EDT) Temp. Heat Index Dew Point Humidity Pressure Visibility Wind Dir Wind Speed Gust Speed Precip Events Conditions
12:53 AM 62.1 °F - 57.9 °F 86% 29.93 in 10.0 mi Calm Calm - N/A   Clear
1:53 AM 62.1 °F - 57.0 °F 84% 29.94 in 10.0 mi Calm Calm - N/A   Clear
2:53 AM 61.0 °F - 57.0 °F 87% 29.92 in 10.0 mi Calm Calm - N/A   Clear
3:53 AM 61.0 °F - 57.0 °F 87% 29.92 in 10.0 mi Calm Calm - N/A   Clear
4:53 AM 61.0 °F - 57.9 °F 90% 29.91 in 10.0 mi SW 4.6 mph - N/A   Clear
5:53 AM 62.1 °F - 57.9 °F 86% 29.94 in 10.0 mi Calm Calm - N/A   Clear
6:53 AM 63.0 °F - 59.0 °F 87% 29.93 in 10.0 mi WSW 3.5 mph - N/A   Clear
7:53 AM 66.0 °F - 62.1 °F 87% 29.93 in 9.0 mi West 4.6 mph - N/A   Clear
8:13 AM 68.0 °F - 64.4 °F 88% 29.95 in 8.0 mi North 5.8 mph - N/A   Partly Cloudy
8:53 AM 70.0 °F - 64.9 °F 84% 29.95 in 10.0 mi WSW 3.5 mph - N/A   Clear
9:53 AM 73.9 °F - 66.9 °F 79% 29.94 in 10.0 mi NW 5.8 mph - N/A   Clear
10:53 AM 78.1 °F - 68.0 °F 71% 29.94 in 10.0 mi SW 3.5 mph - N/A   Clear
11:53 AM 80.1 °F 81.7 °F 64.0 °F 58% 29.94 in 10.0 mi West 5.8 mph - N/A   Partly Cloudy
12:53 PM 82.9 °F 82.1 °F 55.9 °F 39% 29.93 in 10.0 mi NW 8.1 mph 16.1 mph N/A   Clear
1:53 PM 82.9 °F 82.4 °F 57.0 °F 41% 29.92 in 10.0 mi West 9.2 mph - N/A   Clear
2:53 PM 84.0 °F 83.3 °F 57.0 °F 40% 29.91 in 10.0 mi West 9.2 mph - N/A   Clear
3:53 PM 84.0 °F 83.3 °F 57.0 °F 40% 29.90 in 10.0 mi WNW 8.1 mph - N/A   Partly Cloudy
4:53 PM 84.0 °F 83.0 °F 55.9 °F 38% 29.89 in 10.0 mi West 8.1 mph - N/A   Partly Cloudy
5:53 PM 82.9 °F 82.4 °F 57.0 °F 41% 29.87 in 10.0 mi West 9.2 mph - N/A   Clear
6:53 PM 82.0 °F 81.6 °F 55.9 °F 41% 29.87 in 10.0 mi West 6.9 mph - N/A   Clear
7:53 PM 80.1 °F 81.1 °F 61.0 °F 52% 29.87 in 10.0 mi West 4.6 mph - N/A   Clear
8:53 PM 77.0 °F - 60.1 °F 56% 29.87 in 10.0 mi West 3.5 mph - N/A   Clear
9:23 PM 75.2 °F - 60.8 °F 61% 29.88 in 1.2 mi WSW 3.5 mph - N/A   Haze
9:30 PM 75.2 °F - 60.8 °F 61% 29.88 in 0.2 mi WSW 3.5 mph - N/A   Haze
9:43 PM 75.2 °F - 60.8 °F 61% 29.89 in 2.5 mi West 3.5 mph - N/A   Haze
9:51 PM 75.2 °F - 60.8 °F 61% 29.89 in 6.0 mi West 3.5 mph - N/A   Haze
9:53 PM 75.0 °F - 60.1 °F 60% 29.88 in 7.0 mi West 3.5 mph - N/A   Clear
10:53 PM 72.0 °F - 62.1 °F 71% 29.89 in 10.0 mi WNW 3.5 mph - N/A   Clear
11:53 PM 66.0 °F - 59.0 °F 78% 29.91 in 10.0 mi North 11.5 mph 21.9 mph 0.01 in Rain Light Rain